Location: Cleveland
(41.4990°N, 81.6960°W)
Time: 18:23:14
(UTC-04:00)

ISS - Pass Details

Date: 27 September 2021
Orbit: 417 x 423 km, 51.6° (Epoch: 18 October)

Event Time Altitude Azimuth Distance (km) Brightness Sun altitude
Rises 20:22:20 0° 304° (NW) 2,363 1.3 -13.4°
Reaches altitude 10° 20:25:06 10° 328° (NNW) 1,500 -0.4 -13.9°
Maximum altitude 20:27:10 15° 7° (N) 1,221 -1.4 -14.3°
Enters shadow 20:28:52 11° 39° (NE) 1,414 -1.4 -14.6°
